World > North America > United States > Texas > Rogers Hill  

Rogers Hill, TX Hourly Weather Updates

Feedback E-mail the Weather

Quick Clicks

Rogers Hill, TX Weather Maps

°F °C°F °C
Rogers Hill Weather Map
UTC Time: 7/12/2024, 18:32
Your Time:

Rogers Hill, TX Regional Weather

Expires:202407121900;;904502
ASUS44 KFWD 121815
RWRTX 
NORTH TEXAS HOURLY WEATHER ROUNDUP
NATIONAL WEATHER SERVICE FORT WORTH TX
100 PM CDT FRI JUL 12 2024

NOTE: "FAIR" INDICATES FEW OR NO CLOUDS BELOW 12,000 FEET WITH NO
SIGNIFICANT WEATHER AND/OR OBSTRUCTIONS TO VISIBILITY.


TXZ143>147-156>162-174-175-121900-
CENTRAL TEXAS
  
CITY           SKY/WX    TMP DP  RH WIND       PRES   REMARKS
WACO           FAIR      91  68  46 S8        30.08F HX  95           
6HR MIN TEMP:  73; 6HR MAX TEMP:  92;                                

WACO-TSTC      MOSUNNY   91  68  46 S7        30.09F HX  95           
WACO-MCGREGOR  PTSUNNY   94  70  45 SE12      30.09F HX 100           
6HR MIN TEMP:  72; 6HR MAX TEMP:  94;                                

HILLSBORO      FAIR      94  71  46 SE10      30.09F HX 101           
6HR MIN TEMP:  71; 6HR MAX TEMP:  94;                                

CORSICANA      PTSUNNY   92  70  48 S8G16     30.11S HX  97           
6HR MIN TEMP:  75; 6HR MAX TEMP:  92;                                

MEXIA          PTSUNNY   89  72  56 MISG      30.10F HX  96           
6HR MIN TEMP:  72; 6HR MAX TEMP:  91;                                

HEARNE         FAIR      87  71  59 S6        30.11F HX  92           
6HR MIN TEMP:  74; 6HR MAX TEMP:  88; 6HR PCP:  0.01;                

CAMERON        FAIR      89  71  56 S10G18    30.10F HX  94           
6HR MIN TEMP:  73; 6HR MAX TEMP:  90;                                

TEMPLE         FAIR      90  70  51 E8        30.10F HX  95           
6HR MIN TEMP:  72; 6HR MAX TEMP:  91;                                

KILLEEN        FAIR      89  69  51 S9        30.09F HX  93           
6HR MIN TEMP:  73; 6HR MAX TEMP:  91;                                

FORT CAVAZOS   FAIR      91  70  50 S6        30.08F HX  96           
6HR MIN TEMP:  74; 6HR MAX TEMP:  91;                                

GATESVILLE     FAIR      90  68  48 S10       30.10F HX  93           
HAMILTON       PTSUNNY   91  64  40 S6        30.12S HX  92           
6HR MIN TEMP:  72; 6HR MAX TEMP:  91;                                

$$


SKY/WX - Weather  TMP - Temperature  DP - Dew Point  RH - Humidity
WIND - Wind Direction/Speed PRES - Barometric Pressure VSB - Visibility
WCI - Wind Chill Index E13G22 Wind - East Wind 13 mph/Gusts of 22 mph

Trending Headlines

Trending Entertainment Headlines

Rogers Hill Radar Loop

Use the map search tool if you want to place a location marker on the radar map...

Rogers Hill Quick Facts

National Two Day Weather Forecast


E-mail the Rogers Hill Weather Forecast

Voice your opinion or tell us about page issues...